Regional Weather Roundup
Issued by NWS Sterling, VA

Home | Current Version | Previous Version | Graphics & Text | Print | Product List | Glossary On
Versions: 1 2 3 4 5 6 7 8 9 10 11 12 13 14 15 16 17 18 19 20 21 22 23 24 25 26 27 28 29 30 31 32 33 34 35 36 37 38 39 40 41 42 43 44 45 46 47 48
000
ASUS41 KLWX 010610
RWRLWX

REGIONAL WEATHER ROUNDUP
NATIONAL WEATHER SERVICE BALTIMORE MD/WASHINGTON DC
200 AM EDT SAT AUG 01 2015

Note: "FAIR" indicates few or no clouds below 12,000 feet
with no significant weather and/or obstructions to visibility.
 TC=TEMPERATURE CELSIUS

 * =Non NWS site. Station does not report precipitation (e.g. rain,
    snow, etc.), thunder, or fog.

DCZ001-MDZ009-015-VAZ040>042-051-053>054-010700-
WASHINGTON METRO

CITY           SKY/WX    TMP DP  RH WIND       PRES   REMARKS
WASHINGTON NAT PTCLDY    77  64  64 S7        29.89F
DULLES         PTCLDY    70  65  84 CALM      29.90F
ANDREWS AFB    CLEAR     72  65  78 SW7       29.89F
FT BELVOIR     CLEAR     67  65  94 CALM      29.89F
COLLEGE PARK*  CLEAR     68  64  88 CALM      29.88F
LEESBURG*      PTCLDY    72  66  83 SW5       29.90F
MANASSAS*      CLEAR     66  66 100 CALM      29.90F
GAITHERSBURG*  CLEAR     66  63  88 CALM      29.93F

$$

MDZ006>007-011-014-010700-
BALTIMORE METRO

CITY           SKY/WX    TMP DP  RH WIND       PRES   REMARKS
BWI AIRPORT    PTCLDY    70  63  78 W5        29.87F
MD SCIENCE CTR   N/A     77  61  57 MISG      29.87F
MARTIN STATE   CLEAR     77  64  65 SW5       29.87F
ANNAPOLIS      CLEAR     74  63  68 W3        29.87F
FORT MEADE*    CLEAR     64  63  94 CALM      29.90F

$$

MDZ012-015-019>023-010700-
MARYLAND EASTERN SHORE

CITY           SKY/WX    TMP DP  RH WIND       PRES   REMARKS
OCEAN CITY     CLEAR     73  64  73 W7        29.88F
SALISBURY      CLEAR     72  66  81 W5        29.88F
BAY BRIDGE AP*   N/A     79  63  57 SW8       29.88F
CAMBRIDGE*     CLEAR     70  64  83 CALM      29.88F
EASTON*        CLEAR     73  71  95 CALM      29.91F

$$

MDZ017>025-010700-
SOUTHERN MARYLAND

CITY           SKY/WX    TMP DP  RH WIND       PRES   REMARKS
PATUXENT RIVER CLEAR     73  65  75 SW7       29.89F
ST INIGOES     CLEAR     74  65  73 CALM      29.89S
LEONARDTOWN*   CLEAR     70  64  83 CALM      29.91F

$$

MDZ003>005-010700-
NORTH CENTRAL MARYLAND

CITY           SKY/WX    TMP DP  RH WIND       PRES   REMARKS
FREDERICK*     CLEAR     68  64  88 S5        29.91F
HAGERSTOWN APT CLEAR     72  59  63 S6        29.89F
WESTMINSTER*   CLEAR     73  61  64 SW6       29.90S

$$

MDZ501>502-010700-
WESTERN MARYLAND

CITY           SKY/WX    TMP DP  RH WIND       PRES   REMARKS
OAKLAND*       MOCLDY    64 N/A N/A SW7       30.02S
CUMBERLAND*    PTCLDY    70  61  73 CALM      29.95F

$$

VAZ025>031-010700-
SHENANDOAH VALLEY

CITY           SKY/WX    TMP DP  RH WIND       PRES   REMARKS
WINCHESTER*    CLEAR     72  61  68 SW3       29.92S
FRONT ROYAL*   FAIR      64  61  88 S6        29.92S
LURAY*         FAIR      68  64  88 S5        29.95F
NEW MARKET*    FAIR      62  60  91 SW3       29.95S
STAUNTON*      CLEAR     64  60  87 CALM      29.99F
WAYNESBORO*    FAIR      63  58  84 SW5       29.99F

$$

WVZ021-048>050-054>055-010700-
EASTERN WEST VIRGINIA PANHANDLE

CITY           SKY/WX    TMP DP  RH WIND       PRES   REMARKS
MARTINSBURG    CLEAR     67  59  75 SE5       29.90F
PETERSBURG*    CLEAR    N/A N/A N/A CALM      29.96F

$$

VAZ036>039-050-010700-
CENTRAL FOOTHILLS

CITY           SKY/WX    TMP DP  RH WIND       PRES   REMARKS
CHARLOTTESVILL CLEAR     68  63  84 VRB3      29.93F
CULPEPER*      CLEAR     64  64  99 CALM      29.92F
ORANGE*        CLEAR     66  64  94 CALM      29.93F
GORDONSVILLE*  FAIR      64  64 100 CALM      29.92S
WARRENTON*     FAIR      65  65 100 CALM      29.90F

$$

VAZ055>057-010700-
NORTH AND CENTRAL PIEDMONT

CITY           SKY/WX    TMP DP  RH WIND       PRES   REMARKS
FREDERICKSBRG* CLEAR     72  67  84 CALM      29.90S
STAFFORD*      CLEAR     64  63  95 CALM      29.95S

$$

NCZ024-NYZ072-PAZ021-071-VAZ022-071-010700-
OTHER REGIONAL OBSERVATIONS

CITY           SKY/WX    TMP DP  RH WIND       PRES   REMARKS
NEW YORK CITY  CLEAR     79  58  48 VRB5      29.84F
PHILADELPHIA   CLEAR     76  65  68 SW8       29.85F
PITTSBURGH     MOCLDY    72  59  63 W3        29.91S
ROANOKE        CLEAR     69  58  67 W7        30.01F
RICHMOND       CLEAR     71  64  78 CALM      29.91F
RALEIGH        PTCLDY    70  65  84 CALM      29.94F

$$

ANZ530>537-010700-
MARINE OBSERVATIONS

STATION/POSITION TIME  TEMP    WIND        PRES
                       AIR SEA DIR/SP/G
                 (UTC) (F)     (DEG/KT/KT) (MB)
THOMAS PT LIGHT  NOT AVBL
BALT KEY BRIDGE  0500   78     220/ 11/ 12 1011.3F
COVE POINT       0500   77     250/  9/ 13 1012.9F
LEWISETTA        0500   76 84  240/  8/  9 1012.2F
SOLOMONS ISLAND  0500      83                N/A
PINEY POINT      0500          250/  6/  8   N/A

$$



USA.gov is the U.S. government's official web portal to all federal, state and local government web resources and services.